Weather Roundup
Issued by NWS

Home | Current Version | Previous Version | Graphics & Text | Print | Product List | Glossary Off
Versions: 1 2 3 4 5 6 7 8 9 10 11 12 13 14 15 16 17 18 19 20 21 22 23 24 25 26 27 28 29 30 31 32 33 34 35 36 37 38 39 40 41 42 43 44 45 46 47 48 49 50

438
NZUS93 KARX 241659
HRRWXR

CURRENT HOURLY OBSERVATIONS ACROSS
MUCH OF THE UPPER MISSISSIPPI VALLEY
NATIONAL WEATHER SERVICE LA CROSSE WI
1200 PM CDT FRI MAR 24 2017


...SOUTHEAST MINNESOTA...


CITY           SKY/WX    TMP DP  RH WIND       PRES   REMARKS
ROCHESTER      LGT RAIN  39  38  96 N14       29.95R WCI  31
ROCHESTER/MAYO CLOUDY    39  39 100 NE3       29.97R
WINONA         LGT RAIN  41  37  87 N3        29.95F
AUSTIN         CLOUDY    39  37  93 NE10      29.94R WCI  32
ALBERT LEA     DRIZZLE   39  39 100 N12       29.95R WCI  32
DODGE CENTER   LGT RAIN  37  37 100 N12       29.96R WCI  30
PRESTON        CLOUDY    39  38  94 N10       29.94R FOG     WCI  32
OWATONNA       DRIZZLE   39  37  93 N7        29.98R WCI  34
FARIBAULT      DRIZZLE   39  37  93 N9        29.99R WCI  33
$$

...ELSEWHERE IN MINNESOTA...


CITY           SKY/WX    TMP DP  RH WIND       PRES   REMARKS
MINNEAPOLIS    CLOUDY    40  35  83 NE13      30.02R WCI  32
INTNL FALLS    CLOUDY    38  29  70 NE7       30.10R WCI  33
DULUTH         CLOUDY    35  33  92 N8        30.05R FOG     WCI  29
RED WING       LGT RAIN  41  37  87 N7        29.99S
REDWOOD FALLS  CLOUDY    42  36  79 N10G20    30.03F
MANKATO        CLOUDY    39  37  92 N15       30.00R WCI  31
WORTHINGTON    CLOUDY    36  35  96 N16       30.01R FOG     WCI  26
FAIRMONT       CLOUDY    38  37  97 N17       29.98R FOG     WCI  28
$$

...SOUTHWEST WISCONSIN...


CITY           SKY/WX    TMP DP  RH WIND       PRES   REMARKS
LA CROSSE      LGT RAIN  42  40  92 NE10      29.91F FOG
PRAIRIE DU CHI CLOUDY    51  41  69 NW6       29.89R
BOSCOBEL       PTSUNNY   56  44  64 VRB3      29.90S
LONE ROCK      NOT AVBL
PLATTEVILLE    CLOUDY    67  52  59 SW13      29.87S
FORT MC COY    DRIZZLE   41  40  95 N6        29.93F
MAUSTON-NEW LI CLOUDY    46  39  78 CALM      29.92R
VIROQUA        CLOUDY    44  41  89 NE7       29.90S
WIS DELLS      PTSUNNY   49  40  70 NE8       29.92R
$$

...ELSEWHERE IN WISCONSIN...


CITY           SKY/WX    TMP DP  RH WIND       PRES   REMARKS
MILWAUKEE      PTSUNNY   56  43  61 NE9       29.90S
MADISON        CLOUDY    60  48  64 N7        29.89R
GREEN BAY      CLOUDY    40  36  86 N12       29.98R WCI  33
EAU CLAIRE     LGT RAIN  39  37  93 N5        30.00R FOG
BLACK RVR FLS  DRIZZLE   41  41 100 NE6       29.94S
MEDFORD        HVY RAIN  36  34  94 N8        29.95R WCI  29
WAUSAU         LGT RAIN  37  36  96 VRB6      29.95S FOG     WCI  32
WIS RAPIDS     CLOUDY    39  38  96 NE8       29.97R FOG     WCI  33
MARSHFIELD     LGT RAIN  37  36  96 E8        29.94S FOG     WCI  31
RICE LAKE      CLOUDY    37  35  93 N5        30.03R WCI  34
$$

...NORTHEAST IOWA...


CITY           SKY/WX    TMP DP  RH WIND       PRES   REMARKS
WATERLOO       CLOUDY    49  44  83 NW14      29.90R
DUBUQUE        CLOUDY    70  50  49 SW20      29.85S
DECORAH        LGT RAIN  45  43  93 NE5       29.88R
MASON CITY     CLOUDY    41  39  93 N14       29.95R
CHARLES CITY   CLOUDY    45  45 100 N9        29.93R FOG
OELWEIN        MOSUNNY   55  48  76 VRB5      29.89R
$$

...ELSEWHERE IN IOWA...


CITY           SKY/WX    TMP DP  RH WIND       PRES   REMARKS
DES MOINES     LGT RAIN  51  47  86 NW8       29.90R FOG
IOWA CITY      CLOUDY    73  46  38 SW17G24   29.87R
FORT DODGE     CLOUDY    43  37  81 N8        29.95S
MARSHALLTOWN   LGT RAIN  50  44  80 N13       29.88R
CEDAR RAPIDS   CLOUDY    71  49  45 SW18G25   29.84S
$$

...NORTHERN ILLINOIS...


CITY           SKY/WX    TMP DP  RH WIND       PRES   REMARKS
CHICAGO-OHARE  MOSUNNY   75  49  39 SW18G28   29.91S
CHICAGO-MIDWAY MOSUNNY   74  49  41 SW26G35   29.93S
MOLINE         SUNNY     79  44  28 SW23G32   29.87R
ROCKFORD       MOSUNNY   76  46  34 SW21G31   29.89S
PEORIA         SUNNY     77  51  40 SW18      29.93F
$$

NOTE: "FAIR" INDICATES FEW OR NO CLOUDS BELOW 12,000 FEET WITH NO
SIGNIFICANT WEATHER AND/OR OBSTRUCTIONS TO VISIBILITY. WIND
SPEEDS ARE IN MILES-PER-HOUR.




USA.gov is the U.S. government's official web portal to all federal, state and local government web resources and services.